Hourly Weather Abakumy

Today, 7 May, Friday

Time Temperature Precipitation Wind Pressure Humidity
00:00 +6°C° 0 mm 2 mps 748 mmHg 68%
01:00 +5°C° 0 mm 2 mps 748 mmHg 69%
02:00 +5°C° 0 mm 2 mps 748 mmHg 70%
03:00 +5°C° 0 mm 2 mps 748 mmHg 71%
04:00 +4°C° 0 mm 2 mps 748 mmHg 73%
05:00 +3°C° 0 mm 3 mps 748 mmHg 75%
06:00 +5°C° 0 mm 3 mps 748 mmHg 69%
07:00 +8°C° 0 mm 4 mps 748 mmHg 63%
08:00 +11°C° 0 mm 4 mps 748 mmHg 57%
09:00 +12°C° 0 mm 5 mps 748 mmHg 55%
10:00 +13°C° 0 mm 5 mps 748 mmHg 52%
11:00 +14°C° 0 mm 6 mps 747 mmHg 49%
12:00 +14°C° 0 mm 6 mps 747 mmHg 50%
13:00 +15°C° 0 mm 5 mps 746 mmHg 51%
14:00 +15°C° 0 mm 5 mps 746 mmHg 52%
15:00 +13°C° 0.8 mm 6 mps 745 mmHg 63%
16:00 +11°C° 0.8 mm 6 mps 745 mmHg 74%
17:00 +10°C° 0.8 mm 7 mps 744 mmHg 85%
18:00 +10°C° 0.3 mm 6 mps 744 mmHg 88%
19:00 +9°C° 0.3 mm 6 mps 744 mmHg 91%
20:00 +9°C° 0.3 mm 5 mps 744 mmHg 94%
21:00 +9°C° 0.4 mm 5 mps 743 mmHg 95%
22:00 +10°C° 0.4 mm 4 mps 743 mmHg 96%
23:00 +10°C° 0.4 mm 3 mps 743 mmHg 97%

Tomorrow, 8 May, Saturday

Time Temperature Precipitation Wind Pressure Humidity
00:00 +10°C° 0.2 mm 3 mps 743 mmHg 97%
01:00 +10°C° 0.2 mm 2 mps 743 mmHg 97%
02:00 +9°C° 0.2 mm 2 mps 742 mmHg 97%
03:00 +9°C° 0.1 mm 3 mps 743 mmHg 95%
04:00 +8°C° 0.1 mm 4 mps 743 mmHg 93%
05:00 +8°C° 0.1 mm 5 mps 743 mmHg 91%
06:00 +7°C° 0 mm 6 mps 743 mmHg 88%
07:00 +7°C° 0 mm 6 mps 744 mmHg 85%
08:00 +5°C° 0 mm 7 mps 744 mmHg 82%
09:00 +5°C° 0.1 mm 7 mps 744 mmHg 85%
10:00 +4°C° 0.1 mm 7 mps 745 mmHg 89%
11:00 +2°C° 0.1 mm 8 mps 746 mmHg 92%
12:00 +5°C° 0.2 mm 8 mps 746 mmHg 83%
13:00 +6°C° 0.2 mm 8 mps 747 mmHg 74%
14:00 +9°C° 0.2 mm 8 mps 747 mmHg 64%
15:00 +9°C° 0.1 mm 7 mps 748 mmHg 62%
16:00 +9°C° 0.1 mm 7 mps 748 mmHg 60%
17:00 +9°C° 0.1 mm 6 mps 749 mmHg 59%
18:00 +7°C° 0 mm 5 mps 750 mmHg 64%
19:00 +6°C° 0 mm 4 mps 750 mmHg 69%
20:00 +4°C° 0 mm 3 mps 751 mmHg 74%
21:00 +4°C° 0 mm 3 mps 751 mmHg 76%
22:00 +3°C° 0 mm 3 mps 752 mmHg 78%
23:00 +3°C° 0 mm 3 mps 752 mmHg 80%

Day after tomorrow, 9 May, Sunday

Time Temperature Precipitation Wind Pressure Humidity
00:00 +3°C° 0 mm 3 mps 753 mmHg 83%
01:00 +2°C° 0 mm 3 mps 753 mmHg 86%
02:00 +2°C° 0 mm 3 mps 753 mmHg 89%
03:00 +2°C° 0 mm 3 mps 754 mmHg 91%
04:00 +1°C° 0 mm 3 mps 754 mmHg 93%
05:00 +1°C° 0 mm 3 mps 755 mmHg 95%
06:00 +3°C° 0 mm 3 mps 755 mmHg 85%
07:00 +5°C° 0 mm 3 mps 756 mmHg 76%
08:00 +8°C° 0 mm 3 mps 756 mmHg 66%
09:00 +9°C° 0 mm 3 mps 757 mmHg 59%
10:00 +11°C° 0 mm 3 mps 757 mmHg 52%
11:00 +12°C° 0 mm 3 mps 757 mmHg 45%
12:00 +12°C° 0 mm 3 mps 757 mmHg 43%
13:00 +13°C° 0 mm 3 mps 757 mmHg 42%
14:00 +14°C° 0 mm 3 mps 757 mmHg 40%
15:00 +14°C° 0 mm 2 mps 758 mmHg 42%
16:00 +14°C° 0 mm 2 mps 758 mmHg 45%
17:00 +14°C° 0 mm 1 mps 758 mmHg 47%
18:00 +12°C° 0 mm 1 mps 758 mmHg 53%
19:00 +11°C° 0 mm 1 mps 759 mmHg 59%
20:00 +9°C° 0 mm 1 mps 759 mmHg 65%
21:00 +7°C° 0 mm 2 mps 759 mmHg 67%
22:00 +7°C° 0 mm 2 mps 760 mmHg 69%
23:00 +6°C° 0 mm 2 mps 760 mmHg 71%

10 May, Monday

Time Temperature Precipitation Wind Pressure Humidity
00:00 +6°C° 0 mm 2 mps 760 mmHg 73%
01:00 +5°C° 0 mm 2 mps 760 mmHg 75%
02:00 +5°C° 0 mm 2 mps 760 mmHg 76%
03:00 +5°C° 0 mm 2 mps 761 mmHg 77%
04:00 +5°C° 0 mm 2 mps 761 mmHg 78%
05:00 +5°C° 0 mm 2 mps 761 mmHg 79%
06:00 +7°C° 0 mm 2 mps 761 mmHg 72%
07:00 +9°C° 0 mm 3 mps 761 mmHg 65%
08:00 +12°C° 0 mm 3 mps 762 mmHg 58%
09:00 +13°C° 0 mm 3 mps 762 mmHg 54%
10:00 +14°C° 0 mm 3 mps 762 mmHg 49%
11:00 +17°C° 0 mm 4 mps 762 mmHg 45%
12:00 +17°C° 0 mm 4 mps 761 mmHg 44%
13:00 +18°C° 0 mm 4 mps 761 mmHg 44%
14:00 +18°C° 0 mm 4 mps 761 mmHg 43%
15:00 +18°C° 0 mm 3 mps 761 mmHg 46%
16:00 +17°C° 0 mm 3 mps 761 mmHg 49%
17:00 +17°C° 0 mm 3 mps 760 mmHg 52%
18:00 +14°C° 0 mm 3 mps 760 mmHg 59%
19:00 +12°C° 0 mm 3 mps 761 mmHg 66%
20:00 +10°C° 0 mm 3 mps 761 mmHg 74%
21:00 +10°C° 0 mm 3 mps 761 mmHg 75%
22:00 +9°C° 0 mm 3 mps 761 mmHg 75%
23:00 +8°C° 0 mm 3 mps 761 mmHg 76%

11 May, Tuesday

Time Temperature Precipitation Wind Pressure Humidity
00:00 +8°C° 0 mm 2 mps 761 mmHg 76%
01:00 +7°C° 0 mm 2 mps 761 mmHg 76%
02:00 +7°C° 0 mm 2 mps 761 mmHg 76%
03:00 +7°C° 0 mm 2 mps 761 mmHg 76%
04:00 +7°C° 0 mm 2 mps 761 mmHg 76%
05:00 +6°C° 0 mm 2 mps 761 mmHg 76%
06:00 +9°C° 0 mm 2 mps 761 mmHg 70%
07:00 +11°C° 0 mm 3 mps 761 mmHg 63%
08:00 +13°C° 0 mm 3 mps 761 mmHg 57%
09:00 +14°C° 0 mm 3 mps 761 mmHg 53%
10:00 +17°C° 0 mm 4 mps 760 mmHg 48%
11:00 +18°C° 0 mm 4 mps 760 mmHg 44%
12:00 +19°C° 0 mm 4 mps 760 mmHg 43%
13:00 +19°C° 0 mm 4 mps 759 mmHg 42%
14:00 +20°C° 0 mm 4 mps 759 mmHg 40%
15:00 +19°C° 0 mm 4 mps 758 mmHg 44%
16:00 +19°C° 0 mm 3 mps 758 mmHg 47%
17:00 +19°C° 0 mm 3 mps 758 mmHg 51%
18:00 +17°C° 0 mm 3 mps 758 mmHg 59%
19:00 +14°C° 0 mm 3 mps 758 mmHg 67%
20:00 +12°C° 0 mm 3 mps 758 mmHg 75%
21:00 +11°C° 0 mm 3 mps 757 mmHg 78%
22:00 +12°C° 0 mm 2 mps 757 mmHg 81%
23:00 +10°C° 0 mm 2 mps 757 mmHg 84%

12 May, Wednesday

Time Temperature Precipitation Wind Pressure Humidity
00:00 +10°C° 0 mm 2 mps 757 mmHg 85%
01:00 +10°C° 0 mm 2 mps 756 mmHg 87%
02:00 +9°C° 0 mm 2 mps 756 mmHg 88%
03:00 +9°C° 0 mm 3 mps 756 mmHg 87%
04:00 +9°C° 0 mm 3 mps 755 mmHg 87%
05:00 +9°C° 0 mm 3 mps 755 mmHg 86%
06:00 +11°C° 0 mm 4 mps 755 mmHg 82%
07:00 +13°C° 0 mm 5 mps 755 mmHg 78%
08:00 +15°C° 0 mm 5 mps 755 mmHg 73%
09:00 +16°C° 0 mm 6 mps 755 mmHg 67%
10:00 +16°C° 0 mm 6 mps 754 mmHg 60%
11:00 +17°C° 0 mm 6 mps 754 mmHg 54%
12:00 +17°C° 0 mm 6 mps 754 mmHg 54%
13:00 +19°C° 0 mm 6 mps 754 mmHg 54%
14:00 +18°C° 0 mm 7 mps 754 mmHg 54%
15:00 +17°C° 0 mm 6 mps 754 mmHg 58%
16:00 +17°C° 0 mm 6 mps 753 mmHg 61%
17:00 +16°C° 0 mm 5 mps 753 mmHg 64%
18:00 +15°C° 0 mm 4 mps 753 mmHg 71%
19:00 +13°C° 0 mm 4 mps 753 mmHg 77%
20:00 +12°C° 0 mm 3 mps 752 mmHg 83%
21:00 +11°C° 0 mm 3 mps 752 mmHg 86%
22:00 +11°C° 0 mm 3 mps 751 mmHg 89%
23:00 +10°C° 0 mm 3 mps 751 mmHg 91%
Show more